Wind_Speed
12 11 11 9 9 9 11 11 11 4 6 15 19 26 27 25 24 30 32 29 26 27 25 30 30 32 30 29 28 28 28 31 33 33 33 33 33 33
11 10 9 9 9 10 11 11 12 13 3 18 22 23 23 23 25 26 27 28 28 31 32 29 33 33 30 27 27 26 31 32 32 32 32 32 32 32
10 8 7 9 10 11 12 13 14 15 14 20 21 22 23 23 25 28 25 29 29 30 28 29 30 31 29 27 25 30 33 31 33 31 31 31 31 30
7 6 8 8 9 11 12 15 15 14 17 19 22 23 21 26 25 27 28 27 30 28 27 29 30 28 25 23 28 33 34 33 32 31 31 31 31 30
5 6 6 7 11 12 13 14 15 16 16 18 20 20 22 22 29 26 27 27 29 26 25 30 25 27 22 23 31 33 34 32 32 32 30 28 28 30
6 5 3 9 12 12 12 13 14 15 16 17 18 21 21 22 22 24 29 28 31 24 27 30 23 24 20 24 29 30 32 31 31 31 28 26 30 30
3 4 6 9 11 12 14 14 13 13 15 17 18 18 21 26 25 27 22 24 29 24 29 27 27 24 18 29 33 29 31 30 31 29 26 24 29 30
3 4 7 5 9 11 14 13 16 14 12 15 17 17 19 22 24 24 23 23 15 27 26 25 27 25 19 27 31 30 31 29 32 29 27 24 26 29
1 3 4 6 9 14 16 9 14 13 8 16 17 19 20 22 23 24 24 23 21 27 22 19 26 27 18 28 29 29 29 28 29 33 24 24 22 25
3 2 3 6 11 16 16 11 11 8 13 12 15 18 19 19 18 20 22 23 21 22 25 10 23 28 16 25 28 27 28 27 27 31 31 23 22 22
3 4 6 8 12 16 13 10 11 15 12 13 14 16 16 16 16 19 21 18 17 16 22 15 20 23 13 22 26 26 28 26 26 27 30 32 26 27
2 7 6 9 13 18 10 8 13 18 18 19 18 18 18 17 17 17 20 15 15 7 18 17 17 19 8 15 20 24 26 28 27 26 26 28 30 29
2 3 6 11 16 9 5 8 13 15 15 17 17 19 19 20 18 18 17 18 17 11 17 17 11 15 10 10 15 24 23 23 27 29 28 27 26 28
2 3 6 9 6 6 7 9 11 13 13 15 17 18 20 20 21 17 16 18 13 12 14 13 12 14 14 8 9 22 14 23 22 26 29 27 29 28
7 7 7 5 5 6 7 8 11 12 14 15 16 18 19 17 19 17 17 14 15 14 15 14 15 18 12 11 12 16 14 14 21 21 25 28 31 32
5 4 4 5 5 5 5 5 9 10 12 14 16 16 17 17 19 18 18 12 17 16 14 15 15 8 13 16 15 17 19 10 19 16 19 25 28 31
7 7 4 4 4 5 4 5 7 9 11 13 14 16 16 17 17 18 18 12 15 15 16 18 17 7 7 16 21 21 19 17 17 14 13 18 26 28
8 6 6 6 5 5 5 4 6 8 10 12 13 14 16 16 17 18 17 13 15 14 13 16 16 10 7 4 15 23 23 20 16 11 11 9 16 24
11 9 9 8 7 5 5 4 4 7 9 10 12 13 14 14 14 17 18 13 13 12 11 14 13 13 8 2 6 17 21 25 21 13 11 11 8 12
13 12 11 9 7 6 6 5 4 6 8 9 10 12 11 13 13 16 16 12 12 11 11 13 12 15 11 9 5 12 15 21 25 21 12 7 14 14
13 12 12 11 9 7 7 7 4 5 7 9 9 10 10 11 11 14 15 10 10 10 10 11 12 10 11 10 8 10 15 13 18 22 22 6 5 17
15 14 14 12 11 10 8 7 3 4 6 6 7 8 8 9 10 12 13 11 10 9 10 10 9 9 9 8 9 10 12 11 10 11 15 15 10 6
20 17 16 15 14 11 9 9 7 5 5 5 6 6 6 8 9 10 10 9 9 9 9 9 9 9 8 9 5 9 11 11 11 9 12 11 10 9
Wind_Direction
60 46 39 29 19 12 11 353 343 321 322 349 356 348 349 346 347 345 345 347 354 349 354 356 354 354 350 349 348 348 348 345 340 338 336 334 331 328
59 44 35 23 16 12 1 349 349 345 316 336 337 338 342 344 346 345 350 350 348 352 351 352 353 352 352 354 352 355 350 347 345 344 343 340 337 334
58 47 31 22 15 9 359 355 352 353 331 321 329 339 343 347 348 349 350 351 349 350 355 350 350 353 354 353 360 358 354 352 349 349 347 345 343 341
58 48 33 20 16 1 1 356 353 346 335 320 334 340 347 349 347 350 347 349 350 349 354 351 352 355 355 353 359 1 359 354 353 353 353 350 349 349
59 51 30 20 14 4 9 357 350 345 343 337 330 340 345 348 348 347 349 350 350 349 348 350 354 357 357 2 5 2 1 360 360 358 359 2 4 2
32 38 336 3 3 6 3 352 353 351 348 345 341 341 343 347 347 349 345 349 344 355 349 348 356 360 357 8 7 5 6 5 4 4 9 16 18 17
33 24 340 340 356 7 1 357 348 342 349 347 342 338 344 346 350 341 332 334 341 352 345 352 356 0 6 13 13 12 11 9 12 15 19 24 26 24
40 12 348 8 15 356 347 348 337 310 338 347 337 346 340 339 338 333 329 339 347 349 346 354 359 354 6 14 14 18 15 18 19 18 20 22 28 34
12 12 33 339 330 340 348 14 354 360 353 347 344 340 328 330 327 329 331 336 330 333 1 346 358 356 14 13 17 22 21 21 23 25 27 31 29 30
319 354 317 331 320 340 354 13 2 19 356 348 337 334 337 335 333 334 327 328 332 346 9 335 356 353 14 15 21 27 25 27 29 32 32 36 34 36
293 298 278 307 316 334 354 360 354 348 5 350 350 349 347 347 347 342 337 332 345 336 7 357 352 345 356 13 16 31 33 34 34 35 36 37 41 44
275 289 293 304 322 335 346 10 354 355 355 354 357 356 360 356 356 0 350 359 347 328 1 1 358 356 332 355 7 26 30 33 38 37 34 31 29 38
216 295 300 318 334 3 20 13 357 348 351 354 350 355 357 358 355 359 357 1 352 338 349 1 349 351 349 320 351 11 26 24 29 31 33 28 32 31
157 267 284 319 2 10 12 359 353 354 352 348 353 356 356 355 351 358 358 7 0 359 355 359 344 339 350 329 345 1 23 23 23 29 29 32 31 34
196 239 291 326 356 6 353 356 351 349 349 350 350 353 353 349 351 357 359 7 8 3 5 359 347 342 21 357 343 354 355 11 23 27 30 28 30 31
225 253 305 335 335 339 326 346 348 350 350 349 350 350 351 353 355 358 354 2 9 9 14 12 2 21 46 37 24 6 8 2 19 29 32 38 34 38
192 244 257 263 294 299 304 314 343 343 347 350 351 353 353 354 357 359 360 7 11 5 10 13 8 6 37 38 31 23 8 360 7 22 27 32 38 37
214 220 224 240 260 282 293 297 335 342 344 349 352 354 352 357 354 358 5 10 12 6 14 14 13 14 349 359 24 21 22 7 359 9 32 32 41 41
232 206 229 247 266 275 282 302 328 336 341 348 347 353 351 356 354 353 356 10 13 12 20 16 14 11 348 336 11 13 19 17 11 6 9 43 31 40
218 216 229 234 241 255 264 263 304 325 339 344 345 348 351 355 353 353 355 4 8 6 9 16 13 4 348 350 346 357 9 18 20 19 11 55 51 41
213 212 219 227 232 240 251 270 294 314 329 340 340 346 349 352 350 352 353 2 2 4 1 8 8 13 16 15 9 2 5 18 24 29 34 38 25 35
214 220 222 225 224 229 242 262 265 289 314 325 331 337 345 348 346 348 354 355 350 348 353 357 2 10 4 360 357 352 356 353 16 13 30 40 45 5
212 220 222 225 230 232 230 230 242 261 295 307 319 327 339 345 347 348 348 350 346 347 354 359 0 5 358 360 345 4 358 359 355 338 348 1 9 14
Height
871 875 875 876 876 875 871 872 870 868 860 854 855 853 851 849 846 842 838 834 830 826 821 817 813 809 804 799 794 789 783 778 772 766 759 753 747 740
872 875 877 879 877 874 873 872 871 868 865 861 858 856 853 850 847 843 838 834 829 824 821 817 812 808 803 798 793 788 783 776 770 764 757 751 745 738
875 877 879 878 877 875 873 872 870 867 865 860 859 856 853 849 846 842 838 833 828 824 820 816 812 807 802 797 792 787 781 775 768 762 756 750 744 737
877 879 879 878 876 874 873 871 869 868 866 861 858 855 853 849 846 842 838 833 828 824 820 816 812 807 802 798 793 787 781 775 768 762 755 749 742 736
878 879 878 877 876 874 873 871 870 868 866 863 859 857 853 850 845 842 838 833 829 825 820 815 811 807 803 799 793 788 781 775 769 762 755 749 744 737
878 878 877 877 876 875 873 872 870 868 866 863 860 857 854 850 847 843 836 833 828 824 820 815 812 807 803 799 794 789 782 776 769 762 756 751 746 740
878 878 877 876 875 874 873 871 869 868 866 864 862 858 855 851 847 844 840 835 829 825 820 816 812 808 804 800 795 790 783 777 770 764 759 754 749 744
878 877 877 876 875 873 872 870 868 867 866 866 863 860 857 854 850 845 840 835 828 825 821 817 814 809 806 802 798 791 785 779 773 767 762 757 753 749
877 877 877 876 875 873 871 869 869 866 867 866 863 861 858 854 850 845 841 837 833 827 822 818 815 810 807 805 800 794 788 782 777 771 765 761 757 753
875 875 875 875 873 872 870 869 870 867 866 865 864 860 857 853 849 845 841 838 833 829 825 820 817 812 809 807 802 796 791 786 780 775 769 764 761 757
874 873 873 873 872 871 869 869 869 866 865 864 862 859 855 851 848 844 840 836 832 828 826 824 820 814 809 807 804 799 794 789 784 779 774 769 765 760
872 871 871 871 870 868 868 868 866 865 863 861 859 856 853 850 847 845 841 838 834 829 828 825 822 817 812 808 806 802 797 793 788 783 779 775 769 764
870 870 869 869 868 867 867 866 866 865 863 861 858 855 852 849 846 843 841 839 836 832 830 827 824 821 817 812 807 804 801 796 792 787 782 778 774 769
869 869 868 868 868 867 866 866 866 864 863 861 858 855 851 848 845 842 840 839 835 834 830 827 825 822 819 814 811 805 802 799 795 791 787 783 778 773
866 866 867 867 867 865 865 865 865 864 862 860 857 854 852 849 845 842 839 838 835 833 830 827 824 821 819 817 814 809 804 802 799 795 791 787 782 777
863 864 865 864 864 864 864 863 863 863 861 860 857 855 852 849 845 842 839 836 835 832 830 827 823 821 820 817 814 811 808 805 801 798 796 792 787 783
860 862 862 862 863 863 863 862 861 862 860 858 856 853 851 848 845 841 838 836 835 833 830 827 824 822 820 818 815 812 809 806 803 801 798 795 792 788
858 859 860 860 860 860 861 860 860 860 859 856 855 853 851 848 845 841 839 837 835 833 831 829 826 823 820 819 817 814 811 807 804 801 800 797 795 793
854 855 856 857 858 858 859 858 858 858 857 855 854 852 851 848 845 842 839 838 836 834 833 830 827 825 822 819 818 816 813 809 805 802 800 799 797 795
849 851 853 854 855 855 856 855 855 856 855 854 853 852 850 848 845 843 840 838 837 835 833 831 829 826 824 822 820 818 816 812 807 803 801 800 800 798
844 846 848 850 851 852 852 852 853 853 853 852 851 850 849 847 845 843 840 839 837 835 833 831 829 827 825 823 821 820 817 815 812 808 804 802 801 800
840 842 844 845 847 848 848 848 849 850 850 850 849 848 847 846 844 842 841 839 837 835 833 831 829 827 825 824 822 820 818 816 814 812 810 807 805 804
834 837 839 841 843 844 845 845 845 847 847 847 846 846 845 844 843 842 840 839 837 835 833 831 829 827 825 824 822 820 818 817 814 813 811 809 807 805